Wind_Speed
49 48 46 44 43 42 40 39 38 37 36 34 32 31 30 29 28 27 26 26 25 25 25 25 25 25 25 26 27 28 28 29 30 31 32 33 34 35 36 37 39 41 42
50 49 48 46 45 43 42 41 39 38 37 36 34 32 31 30 29 28 27 27 26 26 26 26 26 26 27 27 28 29 30 31 32 33 34 35 36 36 37 39 40 42 44
53 50 49 49 47 45 44 42 41 39 38 37 35 34 33 31 30 29 28 28 27 27 27 27 27 27 27 28 29 30 31 32 33 34 35 36 37 38 39 40 42 44 45
55 52 51 50 49 48 46 44 42 41 39 38 36 35 34 33 31 30 29 29 28 28 28 28 28 28 28 29 30 31 32 33 34 36 37 37 38 40 41 42 43 45 46
56 55 53 50 50 50 47 46 44 42 41 39 38 37 35 34 33 31 31 30 30 29 29 29 29 29 30 31 32 33 34 34 35 37 37 38 40 41 42 43 45 46 48
57 56 54 51 51 50 49 48 46 44 42 41 40 38 36 35 34 33 32 32 31 30 30 30 30 31 31 32 33 34 35 36 37 38 39 40 41 42 43 45 46 48 49
59 58 56 54 53 51 50 50 48 46 44 43 41 39 38 36 35 34 33 33 32 31 31 31 31 32 32 33 34 35 36 37 38 39 40 41 42 43 44 46 47 49 50
60 59 57 56 54 51 51 51 50 48 46 44 42 40 39 38 36 35 34 34 33 33 32 32 33 33 33 34 35 36 37 38 40 40 41 42 43 44 45 47 48 50 51
61 60 58 56 55 52 51 52 51 49 48 45 43 41 40 39 37 36 35 34 34 34 33 33 33 34 35 35 36 37 38 39 40 41 41 42 43 45 46 47 49 51 52
62 60 58 57 55 53 52 52 51 50 49 47 45 43 41 39 38 37 36 35 34 34 34 34 35 35 35 36 37 38 39 39 40 41 42 43 44 45 47 48 50 52 53
63 61 59 57 56 54 53 53 53 51 49 47 45 43 41 40 39 37 36 36 35 35 34 35 35 36 36 37 38 38 39 40 41 41 42 44 45 46 47 49 51 52 53
61 60 58 56 55 54 54 54 53 51 48 47 46 44 42 40 38 37 37 36 36 35 35 35 35 36 36 37 38 39 40 40 41 42 43 44 45 46 48 50 52 53 54
58 59 58 56 54 54 54 54 53 51 48 46 46 45 43 41 39 38 37 37 36 36 36 36 36 36 37 37 38 39 40 41 42 42 43 44 46 47 49 51 52 53 55
58 56 57 55 54 54 54 54 53 51 49 46 45 44 43 42 40 39 37 36 36 36 35 35 36 37 37 37 38 39 40 40 41 42 43 45 46 48 50 52 53 54 57
57 53 55 55 53 51 52 53 51 50 49 47 44 43 42 41 40 39 38 37 36 35 35 35 36 36 36 37 38 38 39 40 41 42 43 45 47 48 51 52 54 56 58
55 55 54 52 50 50 50 49 49 49 47 45 44 43 41 40 39 38 38 37 35 35 35 35 36 37 36 37 37 38 39 40 41 42 44 46 47 49 50 53 55 57 59
54 53 53 50 49 49 48 48 48 48 47 44 44 43 41 40 39 37 37 36 35 34 34 35 36 36 36 36 37 38 39 40 41 43 44 46 47 49 51 54 56 58 59
53 53 48 47 48 48 47 46 45 46 46 44 42 41 41 40 39 38 37 35 35 34 35 35 35 35 35 36 37 38 39 40 41 43 45 46 47 49 52 54 57 58 59
53 53 48 46 46 48 47 46 44 45 44 43 41 39 39 39 38 38 37 35 35 34 35 35 34 34 35 35 36 38 39 40 42 43 45 46 48 51 53 55 56 58 60
52 52 49 46 46 48 48 46 45 44 44 43 42 39 38 37 37 36 36 35 35 34 35 34 34 34 34 35 36 37 38 40 42 44 45 47 49 51 54 55 57 59 61
51 51 49 46 44 45 45 45 45 44 43 42 41 39 37 36 36 35 34 34 33 34 34 33 33 33 34 35 36 37 38 40 42 43 45 48 50 52 54 55 57 60 61
48 49 49 46 43 43 44 44 43 41 41 41 40 38 37 36 36 34 33 32 32 33 32 31 32 33 33 34 36 37 38 40 41 43 46 48 51 52 53 55 57 59 60
47 49 49 46 44 43 43 43 42 41 40 39 39 39 37 35 35 33 32 32 32 32 31 31 32 32 33 34 35 36 38 40 41 44 46 48 50 51 53 55 58 58 58
45 47 47 46 44 44 42 42 41 41 40 39 39 39 37 35 34 33 31 31 30 30 31 31 32 32 33 34 35 36 38 39 41 44 46 48 49 51 53 55 56 56 55
45 47 47 46 45 43 42 41 41 40 39 38 37 38 37 36 33 32 31 31 30 30 30 30 31 31 32 33 34 36 37 39 42 44 45 46 48 51 53 54 54 54 52
46 47 47 46 46 43 42 41 40 39 38 38 37 36 34 34 33 31 30 30 29 29 29 29 30 31 32 32 33 35 37 39 41 42 43 45 48 50 51 51 52 51 50
Wind_Direction
242 243 244 244 245 245 246 247 248 250 251 252 253 254 257 260 263 266 270 274 277 282 286 288 290 291 294 297 301 304 305 307 308 310 312 313 315 315 316 316 317 318 319
240 242 242 243 244 244 244 245 247 248 249 250 252 253 255 258 261 264 268 272 276 280 284 287 289 291 294 297 300 303 305 306 308 309 310 312 314 314 315 316 316 318 318
239 240 241 242 242 242 242 244 245 247 248 249 250 252 253 256 258 262 266 270 274 278 282 286 288 291 293 296 299 302 304 306 308 309 310 311 312 313 314 315 316 317 318
237 238 239 240 240 240 240 242 243 245 246 247 249 250 251 254 256 260 265 268 272 276 280 284 286 289 292 295 299 301 303 305 308 309 310 311 312 312 313 314 316 317 317
236 237 238 239 239 238 239 241 242 243 244 245 247 248 249 252 255 259 263 266 270 275 279 282 285 288 291 294 298 300 302 305 307 309 311 311 312 312 313 314 315 316 317
233 234 235 237 238 238 238 240 241 242 243 244 245 246 248 251 254 258 261 265 269 273 277 280 284 287 291 293 297 299 301 304 307 309 310 311 312 312 313 314 315 316 316
231 232 233 234 236 237 239 240 241 242 243 243 244 245 248 251 253 257 261 265 269 273 276 280 284 287 290 293 296 298 301 304 306 308 310 310 311 312 313 314 315 316 316
230 231 232 232 233 235 237 238 239 240 242 243 244 246 248 250 253 256 259 263 268 271 275 279 283 286 289 292 295 298 300 303 306 307 308 310 311 312 314 315 315 316 316
229 230 230 230 231 234 236 237 238 239 241 243 244 245 247 250 252 255 259 263 267 271 274 278 282 286 289 292 294 297 299 302 305 306 308 309 311 313 314 315 315 316 316
229 229 229 230 231 232 234 236 238 238 240 242 243 245 246 249 251 254 258 262 266 270 273 277 281 285 288 291 294 296 299 302 304 306 308 310 311 313 313 314 316 316 316
229 228 228 228 230 231 233 235 236 238 239 240 242 244 246 247 250 253 257 262 266 269 272 277 281 285 288 291 294 297 299 302 304 305 307 309 311 312 313 314 315 316 316
227 227 227 227 228 231 233 234 236 236 237 238 240 243 245 246 249 252 257 261 265 268 272 276 281 285 288 291 294 297 299 301 303 305 307 309 311 312 313 314 315 316 317
226 227 226 225 227 229 231 232 234 235 236 237 239 242 243 244 248 252 256 260 264 268 272 277 280 284 287 290 293 296 298 301 303 305 307 309 311 312 313 315 315 316 317
225 226 225 225 228 229 229 231 232 232 234 235 238 241 242 244 247 252 256 259 264 268 272 276 280 283 287 290 293 296 298 300 303 305 307 310 311 312 313 315 316 317 318
223 224 223 224 226 227 227 229 230 231 233 234 237 239 241 244 247 251 255 259 264 268 272 276 280 283 287 290 293 295 298 301 303 305 308 310 311 312 314 315 317 318 318
221 222 220 222 224 226 225 226 228 231 233 235 237 239 241 244 247 251 255 259 264 269 272 277 280 283 286 289 293 296 298 301 304 306 308 310 311 313 315 316 317 318 318
221 221 221 222 222 223 223 225 229 230 231 234 236 238 239 242 246 250 254 259 264 268 273 277 280 282 286 289 293 296 299 301 304 306 308 310 311 313 315 317 318 319 319
221 219 218 220 221 222 223 225 226 229 230 233 235 237 239 242 244 248 253 258 262 267 272 276 280 282 285 289 293 297 299 301 303 306 308 310 312 314 316 317 319 319 320
220 219 218 219 220 222 223 224 226 228 229 230 233 236 239 241 245 248 252 257 262 267 271 275 279 283 286 290 293 296 299 301 303 306 309 311 313 315 316 318 319 320 321
219 219 218 218 220 222 222 223 226 228 229 229 231 234 238 240 245 248 253 257 262 265 269 274 278 283 287 290 293 296 299 302 305 307 308 311 313 315 317 318 320 321 322
219 218 217 218 220 220 221 223 224 226 227 229 231 234 237 241 245 249 254 257 261 266 269 274 279 284 288 291 294 296 299 303 305 308 310 312 314 316 318 319 321 322 323
218 218 219 218 219 218 220 221 222 225 227 229 231 234 237 241 245 249 253 257 262 266 270 274 279 284 288 291 294 297 300 304 306 308 311 313 315 317 319 320 322 323 324
219 219 220 219 219 219 220 220 222 225 228 230 232 233 236 240 244 249 253 257 260 266 270 273 279 284 288 292 294 297 301 304 306 309 312 314 316 318 320 321 323 324 325
219 218 218 217 219 220 220 220 222 223 227 230 232 233 235 239 244 249 253 257 262 268 272 276 281 284 289 292 294 298 301 305 307 310 313 314 316 319 321 323 324 325 325
218 217 216 217 218 218 218 220 221 223 226 229 231 233 236 239 244 247 252 258 262 266 271 277 282 286 289 291 294 299 303 306 308 311 314 316 318 320 322 324 325 326 326
216 215 216 217 217 217 218 220 221 223 225 228 231 233 237 241 244 248 252 256 260 265 271 278 283 286 289 291 295 300 304 307 309 312 315 317 319 321 323 325 326 327 327
Height
5784 5788 5792 5795 5799 5802 5806 5809 5811 5813 5816 5818 5819 5821 5822 5823 5823 5824 5824 5823 5823 5822 5821 5819 5817 5815 5813 5811 5809 5806 5804 5800 5797 5794 5790 5786 5782 5778 5773 5769 5764 5759 5754
5774 5778 5782 5785 5790 5794 5797 5801 5803 5806 5809 5811 5813 5815 5816 5817 5818 5818 5818 5818 5818 5817 5816 5814 5812 5811 5809 5806 5804 5801 5798 5795 5792 5788 5785 5781 5776 5772 5767 5762 5757 5752 5747
5763 5768 5772 5776 5780 5784 5788 5792 5795 5798 5801 5804 5806 5808 5809 5811 5811 5812 5813 5812 5812 5811 5811 5809 5807 5805 5804 5801 5799 5796 5793 5790 5786 5782 5779 5774 5770 5765 5761 5756 5750 5745 5739
5751 5756 5761 5766 5770 5774 5779 5783 5786 5790 5793 5796 5798 5800 5802 5804 5805 5806 5807 5807 5806 5806 5805 5804 5802 5800 5798 5796 5793 5791 5788 5784 5780 5776 5772 5768 5763 5759 5754 5749 5743 5738 5732
5738 5744 5750 5755 5759 5764 5769 5773 5778 5781 5785 5788 5791 5793 5795 5797 5798 5799 5800 5801 5800 5800 5799 5798 5796 5794 5792 5790 5788 5785 5782 5778 5774 5770 5766 5761 5757 5752 5747 5741 5736 5730 5723
5726 5732 5739 5744 5748 5753 5759 5764 5768 5773 5776 5780 5782 5785 5788 5790 5791 5793 5794 5794 5794 5794 5793 5792 5790 5788 5786 5784 5782 5779 5775 5772 5768 5764 5759 5754 5750 5744 5739 5733 5728 5721 5715
5713 5720 5726 5732 5738 5743 5749 5755 5759 5763 5767 5771 5774 5777 5780 5782 5784 5786 5787 5787 5787 5787 5786 5785 5784 5782 5780 5778 5775 5772 5769 5765 5761 5757 5752 5747 5742 5737 5731 5725 5719 5713 5706
5699 5707 5714 5721 5727 5732 5738 5744 5749 5753 5758 5762 5766 5769 5771 5774 5776 5779 5780 5780 5780 5780 5779 5778 5777 5775 5773 5771 5768 5765 5762 5758 5754 5750 5745 5740 5735 5729 5723 5717 5711 5704 5697
5685 5693 5701 5709 5715 5721 5727 5733 5739 5744 5749 5753 5757 5761 5764 5767 5769 5771 5772 5773 5773 5773 5772 5771 5770 5768 5766 5764 5761 5758 5755 5751 5747 5742 5737 5732 5727 5721 5715 5709 5702 5695 5688
5673 5680 5688 5696 5703 5711 5716 5722 5729 5734 5739 5744 5748 5752 5756 5759 5761 5763 5765 5765 5766 5765 5765 5764 5763 5761 5759 5757 5754 5751 5747 5744 5739 5735 5730 5724 5719 5713 5707 5700 5693 5686 5678
5660 5668 5676 5684 5692 5699 5706 5712 5718 5724 5729 5735 5739 5743 5746 5750 5753 5755 5757 5758 5758 5758 5757 5757 5755 5754 5752 5749 5746 5743 5740 5736 5731 5727 5722 5716 5710 5704 5698 5691 5684 5676 5668
5647 5655 5664 5672 5680 5688 5695 5702 5708 5714 5719 5725 5729 5733 5737 5741 5744 5747 5749 5750 5750 5750 5750 5749 5748 5746 5744 5742 5739 5736 5732 5728 5724 5719 5714 5708 5702 5696 5689 5682 5675 5667 5659
5634 5643 5651 5661 5669 5677 5684 5691 5697 5704 5710 5714 5719 5724 5728 5732 5735 5738 5740 5741 5742 5742 5742 5741 5740 5738 5736 5734 5731 5728 5724 5720 5716 5711 5706 5700 5694 5687 5680 5673 5665 5657 5649
5622 5631 5640 5649 5658 5665 5672 5680 5687 5694 5700 5705 5709 5714 5719 5723 5726 5730 5732 5733 5733 5734 5734 5734 5732 5730 5728 5726 5723 5720 5716 5712 5708 5703 5697 5691 5685 5678 5671 5664 5656 5647 5639
5611 5619 5629 5638 5646 5654 5662 5670 5677 5684 5690 5695 5700 5705 5710 5714 5717 5721 5723 5724 5726 5726 5726 5725 5724 5722 5720 5718 5715 5712 5708 5704 5700 5695 5689 5683 5676 5669 5662 5654 5646 5637 5628
5600 5608 5618 5627 5635 5644 5652 5660 5667 5674 5680 5686 5691 5696 5701 5705 5709 5712 5714 5716 5717 5718 5718 5717 5716 5715 5712 5710 5707 5704 5700 5696 5691 5686 5680 5674 5667 5660 5653 5645 5636 5627 5618
5590 5599 5609 5618 5626 5634 5642 5650 5657 5664 5671 5677 5682 5687 5692 5696 5700 5703 5705 5708 5709 5710 5710 5709 5708 5706 5704 5702 5699 5696 5692 5688 5683 5677 5672 5665 5659 5652 5644 5635 5626 5617 5607
5581 5590 5600 5608 5616 5625 5633 5641 5648 5655 5662 5668 5673 5678 5683 5688 5692 5695 5697 5699 5701 5701 5702 5701 5700 5698 5696 5694 5691 5688 5684 5679 5674 5669 5663 5657 5650 5643 5634 5626 5616 5607 5596
5573 5581 5591 5599 5607 5615 5624 5631 5639 5645 5652 5659 5665 5670 5675 5679 5683 5686 5689 5691 5692 5693 5693 5693 5692 5690 5688 5686 5683 5679 5675 5671 5666 5660 5654 5648 5641 5633 5625 5616 5606 5596 5586
5565 5574 5583 5591 5598 5607 5615 5623 5630 5637 5643 5650 5656 5661 5667 5671 5675 5678 5680 5682 5684 5684 5685 5685 5684 5682 5680 5678 5675 5671 5667 5662 5657 5651 5645 5639 5632 5624 5616 5606 5597 5587 5576
5557 5566 5574 5583 5590 5598 5606 5614 5621 5628 5635 5641 5647 5653 5658 5663 5667 5670 5672 5674 5675 5676 5677 5676 5676 5674 5672 5669 5667 5663 5659 5654 5649 5642 5636 5630 5623 5615 5606 5596 5586 5576 5565
5548 5558 5566 5574 5582 5590 5598 5606 5613 5620 5627 5633 5640 5645 5650 5655 5658 5661 5664 5666 5667 5668 5669 5668 5667 5666 5664 5661 5658 5654 5650 5646 5641 5636 5628 5620 5613 5605 5596 5587 5577 5566 5555
5541 5549 5558 5567 5575 5583 5591 5598 5605 5612 5619 5626 5631 5637 5642 5646 5650 5653 5655 5657 5659 5660 5660 5660 5659 5658 5656 5653 5650 5647 5642 5638 5632 5626 5619 5611 5603 5595 5587 5577 5567 5556 5545
5533 5542 5550 5559 5568 5576 5583 5590 5598 5604 5611 5617 5623 5628 5634 5638 5642 5645 5647 5649 5651 5652 5653 5653 5652 5650 5648 5645 5642 5639 5634 5629 5624 5617 5610 5603 5594 5586 5577 5568 5557 5547 5536
5525 5534 5542 5551 5560 5568 5575 5583 5590 5596 5603 5609 5615 5620 5625 5630 5633 5636 5639 5641 5643 5644 5644 5644 5643 5641 5639 5637 5634 5631 5627 5622 5616 5609 5602 5594 5586 5577 5567 5558 5548 5538 5528
5517 5526 5534 5543 5552 5560 5568 5575 5582 5589 5595 5602 5607 5612 5617 5621 5625 5628 5631 5633 5635 5636 5637 5636 5635 5634 5632 5629 5626 5623 5619 5614 5607 5601 5593 5586 5578 5569 5560 5550 5540 5530 5520